PBO Station Position Time Series. Reference Frame : NAM14
Format Version,1.1.1
4-character ID,P497
Station name,ImperialApCS2005
Begin Date, 2006-01-11
End Date, 2023-06-26
Release Date, 2023-06-27
Reference position, 32.8347350025 North Latitude, -115.5770313265 East Longitude, -51.03469 meters elevation,
Date, North (mm), East (mm), Vertical (mm), North Std. Deviation (mm), East Std. Deviation (mm),              Vertical Std. Deviation (mm), Quality,
2006-01-11,0.00, 0.00, 0.00, 2.16, 1.86, 8.27, repro,
2006-01-12,-0.12, 0.23, -2.89, 2.04, 1.79, 7.81, repro,
2006-01-13,-1.16, -0.68, -0.45, 2.25, 2.00, 8.82, repro,
2006-01-14,-0.10, 0.36, -6.56, 1.97, 1.67, 7.59, repro,
2006-01-15,-0.67, 1.81, -1.79, 2.08, 1.82, 8.24, repro,
2006-01-16,-0.72, 0.03, -2.27, 2.09, 1.84, 7.90, repro,
2006-01-17,-0.70, -0.62, -4.79, 2.06, 1.77, 7.72, repro,
2006-01-18,0.31, 0.07, -2.89, 1.96, 1.67, 7.50, repro,
2006-01-19,1.16, -0.38, -3.17, 2.02, 1.70, 7.81, repro,
2006-01-20,-0.40, -1.05, -9.24, 2.02, 1.74, 7.93, repro,
2006-01-21,-0.24, -0.38, -3.63, 2.00, 1.69, 7.64, repro,
2006-01-22,-0.62, -0.89, -7.09, 1.97, 1.65, 7.50, repro,
2006-01-23,-0.11, -0.33, -4.66, 1.96, 1.63, 7.49, repro,
2006-01-24,-0.09, -0.10, -2.05, 1.98, 1.68, 7.69, repro,
2006-01-25,-1.15, -0.16, -2.13, 1.92, 1.66, 7.40, repro,
2006-01-26,-0.39, -0.47, -8.50, 1.89, 1.63, 7.37, repro,
2006-01-27,-0.52, -0.08, -9.82, 1.91, 1.62, 7.34, repro,
2006-01-28,-0.81, -0.19, -7.24, 1.89, 1.61, 7.28, repro,
2006-01-29,-0.68, -0.52, -6.59, 1.89, 1.61, 7.30, repro,
2006-01-30,-0.63, -0.42, -8.85, 1.90, 1.61, 7.33, repro,
2006-01-31,-0.24, -0.65, -4.27, 1.90, 1.62, 7.38, repro,
2006-02-01,-0.66, -0.59, -0.72, 1.91, 1.63, 7.42, repro,
2006-02-02,0.47, -1.24, 3.92, 1.91, 1.62, 7.40, repro,
2006-02-03,-0.55, -1.21, -1.48, 1.91, 1.62, 7.37, repro,
2006-02-04,-0.92, -1.39, -3.35, 1.90, 1.61, 7.36, repro,
2006-02-05,-0.78, -1.47, -3.04, 1.92, 1.61, 7.43, repro,
2006-02-06,-0.64, -0.91, -11.10, 1.92, 1.61, 7.43, repro,
2006-02-07,0.02, -0.73, -8.72, 1.90, 1.61, 7.41, repro,
2006-02-08,0.65, -0.73, -8.35, 1.92, 1.60, 7.43, repro,
2006-02-09,-0.17, -0.79, -6.02, 1.97, 1.62, 7.65, repro,
2006-02-10,-0.70, -0.61, -10.04, 2.03, 1.63, 7.79, repro,
2006-02-11,-0.98, -0.55, -12.36, 1.93, 1.62, 7.51, repro,
2006-02-12,-0.74, -0.51, -13.15, 1.92, 1.61, 7.44, repro,
2006-02-13,0.01, -0.47, -8.00, 1.92, 1.60, 7.42, repro,
2006-02-14,-0.25, -0.42, -2.47, 1.92, 1.60, 7.43, repro,
2006-02-15,-1.75, -0.21, -0.22, 1.91, 1.60, 7.43, repro,
2006-02-16,-1.20, -0.07, -5.75, 1.93, 1.63, 7.52, repro,
2006-02-17,-2.06, -0.87, -3.25, 1.92, 1.62, 7.47, repro,
2006-02-18,-2.83, -0.68, -3.34, 1.91, 1.61, 7.38, repro,
2006-02-19,-0.01, 0.53, -12.01, 1.91, 1.62, 7.43, repro,
2006-02-20,0.31, -0.32, -2.71, 1.92, 1.62, 7.43, repro,
2006-02-21,0.45, -0.84, -4.49, 1.92, 1.62, 7.43, repro,
2006-02-22,-0.19, 0.18, 1.86, 1.93, 1.64, 7.48, repro,
2006-02-23,-0.58, -0.49, -3.81, 1.90, 1.62, 7.39, repro,
2006-02-24,-0.97, 0.09, -6.01, 1.89, 1.62, 7.33, repro,
2006-02-25,-1.35, -0.00, -7.80, 1.90, 1.63, 7.36, repro,
2006-02-26,-0.05, -0.15, -5.93, 1.90, 1.63, 7.34, repro,
2006-02-27,-1.10, -0.06, -4.26, 1.92, 1.64, 7.42, repro,
2006-02-28,-2.64, -3.27, 10.45, 1.96, 1.67, 7.52, repro,
2006-03-01,-0.24, -1.39, -0.12, 2.01, 1.77, 7.69, repro,
2006-03-02,-0.47, -0.81, -3.93, 1.90, 1.63, 7.35, repro,
2006-03-03,-2.69, -0.95, -1.13, 1.97, 1.65, 7.64, repro,
2006-03-04,-1.09, 0.81, 1.32, 2.05, 1.81, 8.07, repro,
2006-03-05,-1.18, -0.28, -4.71, 1.91, 1.65, 7.45, repro,
2006-03-06,0.05, 0.30, -15.12, 1.89, 1.65, 7.45, repro,
2006-03-07,-2.71, -0.40, -7.90, 1.89, 1.63, 7.38, repro,
2006-03-08,-0.71, -1.30, -1.81, 1.88, 1.62, 7.32, repro,
2006-03-09,0.27, -0.86, 3.26, 1.90, 1.64, 7.36, repro,
2006-03-10,-0.20, 0.05, 1.13, 1.91, 1.66, 7.45, repro,
2006-03-11,-1.02, -1.05, 1.16, 1.92, 1.67, 7.44, repro,
2006-03-12,-2.59, -2.67, 4.04, 1.92, 1.65, 7.39, repro,
2006-03-13,-1.46, -0.40, -3.62, 1.91, 1.65, 7.32, repro,
2006-03-14,-1.22, 0.02, -0.73, 1.93, 1.65, 7.33, repro,
2006-03-15,-0.39, -0.56, 0.54, 1.93, 1.66, 7.41, repro,
2006-03-16,-0.45, -0.48, -5.11, 1.97, 1.70, 7.56, repro,
2006-03-17,-1.96, -0.73, 2.88, 1.97, 1.69, 7.51, repro,
2006-03-18,1.57, 0.45, 3.69, 1.93, 1.67, 7.41, repro,
2006-03-19,-1.60, -1.93, -2.41, 1.92, 1.67, 7.43, repro,
2006-03-20,-1.35, -1.20, -1.83, 1.92, 1.66, 7.35, repro,
2006-03-21,-0.32, -0.11, -7.30, 1.91, 1.67, 7.38, repro,
2006-03-22,-0.85, -0.84, -7.20, 1.93, 1.69, 7.43, repro,
2006-03-23,-0.14, -0.60, -11.47, 2.01, 1.75, 7.83, repro,
2006-03-24,-0.53, 0.17, -8.37, 1.99, 1.71, 7.69, repro,
2006-03-25,-0.99, 0.25, -3.44, 1.98, 1.69, 7.62, repro,
2006-03-26,0.80, 0.68, -3.87, 1.98, 1.70, 7.66, repro,
2006-03-27,-1.11, -3.64, 0.61, 1.97, 1.69, 7.61, repro,
2006-03-28,-0.10, 0.27, 1.88, 1.91, 1.66, 7.48, repro,
2006-03-29,0.15, 1.05, 2.43, 1.89, 1.67, 7.48, repro,
2006-03-30,-0.54, -0.18, -0.32, 1.87, 1.65, 7.39, repro,
2006-03-31,0.59, -0.74, -3.47, 1.90, 1.70, 7.64, repro,
2006-04-01,-0.20, 0.24, 1.04, 1.87, 1.64, 7.34, repro,
2006-04-02,-0.70, -0.07, 0.06, 1.86, 1.63, 7.31, repro,
2006-04-03,-0.14, -1.00, 3.71, 1.86, 1.64, 7.39, repro,
2006-04-04,-0.03, -1.02, 1.30, 1.87, 1.65, 7.38, repro,
2006-04-05,-3.02, -10.54, -3.52, 1.94, 1.75, 7.87, repro,
2006-04-06,1.25, -1.08, -2.78, 1.94, 1.76, 7.76, repro,
2006-04-07,-0.42, -0.58, 1.33, 1.97, 1.71, 7.68, repro,
2006-04-08,0.88, -1.59, -5.15, 1.99, 1.67, 7.78, repro,
2006-04-09,1.83, -1.53, -0.46, 1.87, 1.64, 7.35, repro,
2006-04-10,-2.37, -4.20, 0.18, 1.87, 1.65, 7.42, repro,
2006-04-11,-0.67, 0.28, 5.20, 1.94, 1.66, 7.77, repro,
2006-04-12,0.09, -0.49, 0.24, 1.95, 1.66, 7.75, repro,
2006-04-13,0.17, -0.65, 1.69, 1.89, 1.64, 7.42, repro,
2006-04-14,0.03, -2.08, 0.24, 1.94, 1.69, 7.56, repro,
2006-04-15,-0.85, 0.12, -2.37, 1.92, 1.67, 7.53, repro,
2006-04-16,-0.38, -0.89, 3.00, 1.87, 1.63, 7.36, repro,
2006-04-17,-2.67, -1.21, 6.65, 1.87, 1.63, 7.35, repro,
2006-04-18,-0.28, -1.85, -0.74, 1.90, 1.68, 7.57, repro,
2006-04-19,0.40, -0.98, -2.11, 1.88, 1.64, 7.43, repro,
2006-04-20,-0.53, -1.39, 2.39, 1.89, 1.66, 7.49, repro,
2006-04-21,0.25, -1.44, 5.41, 1.91, 1.70, 7.54, repro,
2006-04-22,-0.52, -3.12, -3.58, 1.87, 1.63, 7.36, repro,
2006-04-23,-1.01, -1.19, -4.57, 1.91, 1.77, 7.75, repro,
2006-04-24,-0.46, -1.60, -5.77, 1.90, 1.69, 7.54, repro,
2006-04-25,0.25, -0.16, 1.97, 1.90, 1.69, 7.55, repro,
2006-04-26,-1.60, -1.34, 3.74, 1.90, 1.68, 7.51, repro,
2006-04-27,-1.21, -2.47, 1.25, 1.93, 1.70, 7.57, repro,
2006-04-28,-0.33, -0.39, 0.15, 1.91, 1.64, 7.38, repro,
2006-04-29,0.48, -1.33, -4.30, 1.88, 1.63, 7.38, repro,
2006-04-30,-0.17, -1.64, -1.19, 1.88, 1.64, 7.42, repro,
2006-05-01,-0.75, 1.12, 2.61, 1.89, 1.64, 7.45, repro,
2006-05-02,-0.50, -1.28, -0.65, 1.86, 1.63, 7.34, repro,
2006-05-03,0.25, -0.19, -2.80, 1.87, 1.62, 7.32, repro,
2006-05-04,1.02, -2.12, -1.19, 1.87, 1.63, 7.36, repro,
2006-05-05,-0.24, -2.26, 0.52, 1.91, 1.67, 7.58, repro,
2006-05-06,0.91, -1.79, -2.67, 1.88, 1.64, 7.44, repro,
2006-05-07,-0.69, -1.34, -2.85, 1.88, 1.63, 7.40, repro,
2006-05-08,-0.40, -0.63, -0.18, 1.87, 1.63, 7.35, repro,
2006-05-09,-0.02, -2.79, 5.02, 1.92, 1.63, 7.51, repro,
2006-05-10,0.32, -1.80, 0.06, 1.87, 1.63, 7.39, repro,
2006-05-11,0.05, -1.56, -1.07, 1.88, 1.64, 7.44, repro,
2006-05-12,-0.00, -1.20, 3.16, 1.88, 1.63, 7.42, repro,
2006-05-13,-0.33, -1.48, -0.04, 1.87, 1.63, 7.39, repro,
2006-05-14,-0.51, -1.11, 2.80, 1.92, 1.65, 7.55, repro,
2006-05-15,-0.44, -2.04, -4.37, 1.87, 1.63, 7.42, repro,
2006-05-16,-1.13, -1.33, -2.85, 1.91, 1.67, 7.57, repro,
2006-05-17,0.13, -3.26, 1.50, 1.93, 1.68, 7.60, repro,
2006-05-18,-1.68, -2.57, -0.61, 1.93, 1.63, 7.52, repro,
2006-05-19,-0.46, -1.60, 0.89, 2.01, 1.68, 7.84, repro,
2006-05-20,-1.25, -1.83, -3.26, 1.95, 1.65, 7.66, repro,
2006-05-21,-1.09, -2.75, -5.46, 2.03, 1.70, 7.94, repro,
2006-05-22,0.57, -2.78, -0.58, 2.01, 1.71, 7.85, repro,
2006-05-23,-0.75, -2.60, 0.41, 1.96, 1.64, 7.59, repro,
2006-05-24,-2.49, -2.07, -2.38, 1.96, 1.67, 7.70, repro,
2006-05-25,-1.74, -1.44, 2.67, 2.10, 1.73, 8.25, repro,
2006-05-26,-2.00, -2.14, 3.16, 2.05, 1.70, 8.10, repro,
2006-05-27,-1.78, -0.87, 0.39, 1.98, 1.66, 7.69, repro,
2006-05-28,-0.98, -2.10, -2.73, 1.97, 1.66, 7.67, repro,
2006-05-29,-2.07, 0.34, -1.45, 1.97, 1.68, 7.72, repro,
2006-05-30,0.15, -1.32, 0.97, 2.00, 1.68, 7.78, repro,
2006-05-31,-1.44, -1.95, 1.76, 2.03, 1.71, 7.94, repro,
2006-06-01,-0.34, -1.28, -2.07, 1.99, 1.68, 7.76, repro,
2006-06-02,-0.71, -1.57, 1.21, 2.07, 1.74, 8.04, repro,
2006-06-03,-1.35, -2.06, 5.62, 2.03, 1.70, 7.85, repro,
2006-06-04,-0.79, -1.15, 6.38, 1.99, 1.68, 7.73, repro,
2006-06-05,-1.18, -0.43, -2.24, 2.03, 1.71, 7.88, repro,
2006-06-06,-1.34, -1.73, 6.86, 1.99, 1.68, 7.74, repro,
2006-06-07,-1.45, -0.96, -8.59, 2.05, 1.71, 7.94, repro,
2006-06-08,-1.80, 0.51, 0.74, 1.95, 1.65, 7.63, repro,
2006-06-09,-0.69, 0.93, 5.11, 2.01, 1.71, 7.88, repro,
2006-06-10,-1.36, 0.41, 1.26, 1.96, 1.65, 7.62, repro,
2006-06-11,-0.82, -1.70, 3.82, 1.97, 1.67, 7.70, repro,
2006-06-12,-1.02, -0.53, 7.71, 2.03, 1.73, 7.88, repro,
2006-06-13,-1.97, -1.35, 8.07, 2.03, 1.71, 7.97, repro,
2006-06-14,-0.25, -2.13, -0.90, 1.95, 1.66, 7.66, repro,
2006-06-15,-1.83, -0.70, 15.40, 1.97, 1.68, 7.77, repro,
2006-06-16,-0.94, -1.66, 1.33, 1.94, 1.65, 7.63, repro,
2006-06-17,-0.22, -1.04, 4.44, 1.94, 1.63, 7.56, repro,
2006-06-18,-1.41, -0.37, 10.88, 1.98, 1.68, 7.84, repro,
2006-06-19,-0.97, -2.28, 6.57, 1.97, 1.68, 7.86, repro,
2006-06-20,-1.16, -0.16, 7.91, 2.01, 1.73, 7.91, repro,
2006-06-21,-1.31, -1.49, 11.39, 1.97, 1.68, 7.79, repro,
2006-06-22,-2.79, 0.11, 7.06, 2.00, 1.71, 7.86, repro,
2006-06-23,-2.24, -1.50, 6.03, 1.98, 1.69, 7.91, repro,
2006-06-24,-0.56, -1.78, 5.06, 1.98, 1.69, 7.90, repro,
2006-06-25,-0.00, -0.56, -1.17, 1.98, 1.70, 7.89, repro,
2006-06-26,0.78, -1.43, 3.33, 1.99, 1.71, 7.97, repro,
2006-06-27,-0.55, -1.23, 9.64, 2.06, 1.81, 8.14, repro,
2006-06-28,-0.55, 1.73, -7.75, 2.08, 1.77, 8.26, repro,
2006-06-29,0.54, -2.43, 9.22, 1.94, 1.71, 7.71, repro,
2006-06-30,1.64, -2.00, 3.76, 1.98, 1.68, 7.88, repro,
2006-07-01,-1.39, -0.91, 10.91, 2.00, 1.70, 7.92, repro,
2006-07-02,-0.34, 0.75, -7.69, 1.99, 1.72, 7.94, repro,
2006-07-03,0.15, -1.10, -7.24, 1.99, 1.73, 7.93, repro,
2006-07-04,-0.90, -1.66, -5.20, 1.94, 1.65, 7.72, repro,
2006-07-05,-1.16, -1.41, 4.42, 1.94, 1.64, 7.73, repro,
2006-07-06,-2.75, 0.07, -7.17, 1.99, 1.69, 7.86, repro,
2006-07-07,-0.50, -1.69, -7.52, 1.97, 1.68, 7.89, repro,
2006-07-08,-1.66, 2.17, -3.72, 1.97, 1.66, 7.87, repro,
2006-07-09,-0.15, -0.40, -1.04, 2.01, 1.70, 7.88, repro,
2006-07-10,-2.63, -1.49, 7.16, 1.98, 1.66, 7.85, repro,
2006-07-11,-0.53, -0.65, 12.09, 1.97, 1.67, 7.85, repro,
2006-07-12,0.09, 1.44, -6.63, 1.99, 1.66, 7.84, repro,
2006-07-13,-0.35, 0.52, 3.34, 1.96, 1.64, 7.73, repro,
2006-07-14,-0.40, -0.09, 7.16, 1.97, 1.66, 7.81, repro,
2006-07-15,-0.66, -0.72, 9.82, 1.97, 1.66, 7.79, repro,
2006-07-16,0.75, -2.77, 7.08, 1.96, 1.69, 7.91, repro,
2006-07-17,-2.61, 0.32, -3.59, 2.05, 1.76, 8.16, repro,
2006-07-18,-0.89, -0.68, 3.42, 1.90, 1.63, 7.41, repro,
2006-07-19,-0.30, 0.04, 8.31, 1.88, 1.64, 7.46, repro,
2006-07-20,-0.22, 0.67, 4.69, 1.93, 1.70, 7.59, repro,
2006-07-21,-1.41, -0.98, 4.20, 1.89, 1.65, 7.46, repro,
2006-07-22,-0.80, -1.37, 6.09, 1.95, 1.73, 7.77, repro,
2006-07-23,-1.28, 1.19, 0.21, 1.91, 1.66, 7.47, repro,
2006-07-24,-2.85, -1.05, 4.04, 1.92, 1.69, 7.50, repro,
2006-07-25,0.63, 1.07, 0.11, 1.92, 1.70, 7.55, repro,
2006-07-26,-0.75, 2.36, 0.05, 1.89, 1.67, 7.53, repro,
2006-07-27,-1.01, 1.82, 5.30, 1.88, 1.65, 7.42, repro,
2006-07-28,-1.38, -0.23, -0.85, 1.92, 1.69, 7.49, repro,
2006-07-29,-0.52, -2.16, -2.58, 1.95, 1.72, 7.65, repro,
2006-07-30,0.86, -1.03, 2.93, 1.93, 1.69, 7.53, repro,
2006-07-31,0.27, -1.34, 7.47, 1.89, 1.64, 7.47, repro,
2006-08-01,-0.14, -2.37, 5.07, 1.91, 1.66, 7.54, repro,
2006-08-02,-0.74, -1.27, 5.64, 1.90, 1.69, 7.64, repro,
2006-08-03,-1.15, 2.92, 7.55, 1.92, 1.69, 7.71, repro,
2006-08-04,0.56, -1.30, 5.69, 1.99, 1.69, 7.93, repro,
2006-08-05,-1.47, 0.47, -0.59, 1.95, 1.74, 7.83, repro,
2006-08-06,-0.42, -0.10, -1.22, 1.92, 1.68, 7.66, repro,
2006-08-07,-0.27, -0.07, 2.00, 1.94, 1.70, 7.76, repro,
2006-08-08,-2.00, 1.32, 2.38, 1.89, 1.65, 7.48, repro,
2006-08-09,-0.84, 2.93, 3.68, 1.94, 1.72, 7.60, repro,
2006-08-10,-0.66, -1.97, 5.78, 1.93, 1.71, 7.58, repro,
2006-08-11,-1.64, -0.75, 11.89, 1.89, 1.64, 7.45, repro,
2006-08-12,-1.70, 2.05, 1.54, 1.90, 1.64, 7.51, repro,
2006-08-13,-3.69, 1.05, 5.42, 1.92, 1.70, 7.52, repro,
2006-08-14,-2.91, -0.52, 4.37, 1.96, 1.77, 7.80, repro,
2006-08-15,-2.41, -1.14, 15.42, 1.99, 1.71, 7.87, repro,
2006-08-16,0.05, 0.09, 5.47, 1.93, 1.71, 7.58, repro,
2006-08-17,1.00, 0.65, 0.23, 1.98, 1.69, 7.71, repro,
2006-08-18,-0.07, -2.30, 3.82, 1.94, 1.74, 7.64, repro,
2006-08-19,-1.23, -0.86, -3.71, 1.87, 1.62, 7.37, repro,
2006-08-20,-1.50, -1.56, -0.77, 1.88, 1.63, 7.39, repro,
2006-08-21,-0.92, 0.45, -4.92, 1.92, 1.68, 7.58, repro,
2006-08-22,-0.41, 2.24, 5.01, 1.91, 1.67, 7.53, repro,
2006-08-23,-2.10, 1.61, 10.89, 1.92, 1.68, 7.59, repro,
2006-08-24,0.22, -1.98, 5.20, 1.91, 1.66, 7.50, repro,
2006-08-25,-2.52, -0.39, 3.25, 1.95, 1.71, 7.83, repro,
2006-08-26,-0.67, -1.24, 1.29, 1.96, 1.73, 7.86, repro,
2006-08-27,0.42, -0.23, 0.96, 1.95, 1.74, 7.83, repro,
2006-08-28,-1.10, -0.54, 1.36, 1.95, 1.75, 7.88, repro,
2006-08-29,-1.20, -0.67, -2.73, 2.04, 1.85, 8.59, repro,
2006-08-30,0.73, 0.38, 7.42, 2.04, 1.79, 8.32, repro,
2006-08-31,-0.96, 1.21, -3.34, 1.99, 1.77, 8.02, repro,
2006-09-01,0.39, -1.75, -6.07, 2.02, 1.80, 8.12, repro,
2006-09-02,0.22, -0.80, 3.33, 1.97, 1.76, 7.98, repro,
2006-09-03,-0.58, 0.51, 1.14, 1.95, 1.76, 7.95, repro,
2006-09-04,0.08, 1.33, -5.23, 1.99, 1.79, 8.04, repro,
2006-09-05,0.45, 0.26, -7.36, 2.01, 1.78, 8.03, repro,
2006-09-06,1.56, 0.82, 0.27, 1.96, 1.75, 7.90, repro,
2006-09-07,-1.84, -1.58, 6.29, 2.02, 1.82, 8.15, repro,
2006-09-08,0.24, -1.14, -2.40, 2.00, 1.83, 8.15, repro,
2006-09-09,-2.04, -2.70, -3.42, 1.92, 1.71, 7.64, repro,
2006-09-10,2.11, 0.52, -5.38, 1.98, 1.80, 7.84, repro,
2006-09-11,-0.49, 0.86, -2.25, 1.97, 1.79, 7.82, repro,
2006-09-12,1.21, -0.21, 3.85, 1.94, 1.71, 7.69, repro,
2006-09-13,0.56, -0.16, -2.17, 1.92, 1.71, 7.65, repro,
2006-09-14,-1.16, 0.35, 2.62, 2.01, 1.78, 7.92, repro,
2006-09-15,1.28, -0.12, 4.85, 1.97, 1.69, 7.80, repro,
2006-09-16,0.96, -0.91, 3.09, 1.91, 1.66, 7.53, repro,
2006-09-17,0.22, -0.07, 2.38, 1.91, 1.66, 7.51, repro,
2006-09-18,0.08, -0.18, 3.50, 1.89, 1.65, 7.47, repro,
2006-09-19,1.72, -0.17, 1.77, 1.88, 1.65, 7.43, repro,
2006-09-20,1.91, 0.01, -1.50, 1.94, 1.69, 7.59, repro,
2006-09-21,0.82, -0.63, 0.51, 1.92, 1.71, 7.65, repro,
2006-09-22,1.01, 0.71, 5.03, 2.01, 1.76, 7.96, repro,
2006-09-23,1.65, -0.63, -2.24, 1.99, 1.71, 7.78, repro,
2006-09-24,1.13, 0.09, -4.18, 2.08, 1.79, 8.37, repro,
2006-09-25,1.39, -0.23, 4.27, 2.04, 1.76, 8.07, repro,
2006-09-26,0.81, -0.58, -4.11, 2.03, 1.81, 7.98, repro,
2006-09-27,1.28, 0.98, -3.41, 2.04, 1.80, 7.98, repro,
2006-09-28,0.77, -0.60, -0.50, 2.01, 1.81, 8.10, repro,
2006-09-29,1.58, -2.65, 2.71, 2.01, 1.81, 8.11, repro,
2006-09-30,0.44, -0.95, 4.57, 1.97, 1.72, 7.73, repro,
2006-10-01,0.82, -1.20, -2.67, 1.98, 1.78, 7.97, repro,
2006-10-02,1.98, -1.25, 2.39, 2.00, 1.77, 7.79, repro,
2006-10-03,1.45, -3.20, -3.03, 2.05, 1.83, 8.02, repro,
2006-10-04,0.89, 0.45, 8.07, 1.96, 1.71, 7.71, repro,
2006-10-05,1.47, -0.85, 5.86, 2.00, 1.71, 7.98, repro,
2006-10-06,0.16, -1.33, -5.29, 2.02, 1.76, 8.17, repro,
2006-10-07,1.35, -2.33, -5.65, 1.99, 1.75, 8.00, repro,
2006-10-08,0.10, -1.65, -7.74, 2.01, 1.77, 8.10, repro,
2006-10-09,0.59, -1.59, -3.79, 2.05, 1.86, 8.44, repro,
2006-10-10,1.05, -1.29, -3.70, 1.97, 1.73, 7.86, repro,
2006-10-11,-0.38, -1.63, -2.84, 1.98, 1.78, 8.01, repro,
2006-10-12,0.72, -1.71, -2.62, 1.96, 1.71, 7.72, repro,
2006-10-13,-0.84, 0.72, 1.81, 1.92, 1.70, 7.63, repro,
2006-10-14,1.66, -0.75, 2.14, 1.96, 1.83, 8.07, repro,
2006-10-15,1.64, -0.77, 3.92, 1.93, 1.73, 7.76, repro,
2006-10-16,1.25, -1.23, 7.41, 2.03, 1.81, 8.30, repro,
2006-10-17,2.02, -0.26, 10.79, 1.98, 1.77, 7.95, repro,
2006-10-18,0.59, -0.67, -2.68, 1.95, 1.74, 7.94, repro,
2006-10-19,1.70, -0.56, -0.64, 2.09, 1.81, 8.51, repro,
2006-10-20,1.03, -1.06, 2.54, 2.24, 2.02, 9.88, repro,
2006-10-21,0.42, -2.44, 1.13, 2.08, 1.83, 8.69, repro,
2006-10-22,0.62, -1.90, -4.01, 1.91, 1.76, 7.78, repro,
2006-10-23,0.84, -2.44, -3.80, 2.04, 1.84, 8.35, repro,
2006-10-24,-0.04, 0.05, -4.45, 1.95, 1.79, 7.95, repro,
2006-10-25,-0.04, -1.23, 5.63, 1.97, 1.79, 7.78, repro,
2006-10-26,0.65, -0.40, -1.74, 1.97, 1.82, 7.90, repro,
2006-10-27,1.69, -0.24, -8.50, 1.89, 1.79, 7.81, repro,
2006-10-28,0.01, -1.29, -2.49, 2.08, 1.82, 8.55, repro,
2006-10-29,0.12, -0.36, 4.48, 1.90, 1.75, 7.70, repro,
2006-10-30,0.42, -0.81, 0.62, 1.86, 1.68, 7.47, repro,
2006-10-31,0.41, -1.13, 1.33, 1.91, 1.77, 7.75, repro,
2006-11-01,1.45, -1.99, -1.67, 2.05, 1.89, 8.54, repro,
2006-11-02,0.65, -0.30, 0.13, 1.87, 1.70, 7.48, repro,
2006-11-03,1.06, -0.01, -0.65, 1.92, 1.80, 7.84, repro,
2006-11-04,0.99, -0.71, -2.54, 1.92, 1.75, 7.74, repro,
2006-11-05,1.08, -0.66, -0.93, 1.92, 1.75, 7.74, repro,
2006-11-06,0.94, -1.33, -4.26, 1.89, 1.72, 7.62, repro,
2006-11-07,1.14, -0.63, -3.12, 1.95, 1.82, 8.05, repro,
2006-11-08,0.58, -0.47, 5.13, 1.96, 1.78, 7.93, repro,
2006-11-09,0.79, -0.49, 3.15, 1.96, 1.81, 8.02, repro,
2006-11-10,0.65, -0.99, -1.15, 1.92, 1.70, 7.69, repro,
2006-11-11,1.01, -0.13, -3.82, 1.94, 1.75, 7.94, repro,
2006-11-12,0.63, -3.75, -5.02, 2.04, 1.86, 8.56, repro,
2006-11-13,1.44, -0.70, -0.74, 1.94, 1.73, 7.81, repro,
2006-11-14,1.44, -0.77, 4.91, 1.85, 1.65, 7.44, repro,
2006-11-15,0.23, -0.12, -0.71, 1.84, 1.65, 7.37, repro,
2006-11-16,0.88, -0.65, 1.99, 1.85, 1.66, 7.43, repro,
2006-11-17,0.08, -1.16, -2.79, 1.95, 1.79, 7.73, repro,
2006-11-18,-0.21, -0.42, -6.40, 1.84, 1.65, 7.36, repro,
2006-11-19,0.35, -0.92, -8.85, 1.84, 1.65, 7.39, repro,
2006-11-20,-0.05, -0.28, -5.68, 1.84, 1.65, 7.36, repro,
2006-11-21,0.76, -0.95, -2.59, 1.85, 1.66, 7.40, repro,
2006-11-22,0.38, -0.63, -5.23, 1.85, 1.65, 7.38, repro,
2006-11-23,1.35, 0.21, -8.27, 1.87, 1.69, 7.54, repro,
2006-11-24,1.24, -0.98, -4.10, 1.91, 1.72, 7.67, repro,
2006-11-25,1.19, -0.63, -2.58, 1.88, 1.67, 7.50, repro,
2006-11-26,0.36, -0.59, 1.36, 1.87, 1.67, 7.47, repro,
2006-11-27,-0.11, -0.96, -3.67, 1.90, 1.68, 7.58, repro,
2006-11-28,1.53, -2.74, -13.13, 1.90, 1.72, 7.58, repro,
2006-11-29,-0.93, -0.50, -0.76, 1.85, 1.65, 7.37, repro,
2006-11-30,0.81, -0.10, -9.86, 1.85, 1.66, 7.41, repro,
2006-12-01,0.32, -0.13, -6.33, 1.85, 1.67, 7.41, repro,
2006-12-02,-0.44, -0.72, -9.19, 1.86, 1.67, 7.44, repro,
2006-12-03,1.05, -0.71, -10.95, 1.86, 1.66, 7.41, repro,
2006-12-04,1.60, -1.35, -12.32, 1.94, 1.69, 7.71, repro,
2006-12-05,0.63, -0.23, -8.03, 1.92, 1.79, 7.70, repro,
2006-12-06,1.64, -0.64, -6.12, 1.96, 1.81, 7.80, repro,
2006-12-07,1.16, -1.27, -5.74, 1.89, 1.74, 7.60, repro,
2006-12-08,1.44, -1.03, -6.55, 1.89, 1.72, 7.50, repro,
2006-12-09,0.06, -0.15, -5.02, 2.04, 1.85, 8.12, repro,
2006-12-10,5.08, -2.57, -9.40, 1.93, 1.76, 7.73, repro,
2006-12-11,2.36, -2.80, -8.13, 1.86, 1.69, 7.45, repro,
2006-12-12,1.75, -0.81, -8.44, 1.99, 1.78, 8.01, repro,
2006-12-13,1.76, -1.20, -5.15, 1.89, 1.73, 7.58, repro,
2006-12-14,1.77, -1.33, -1.99, 1.88, 1.75, 7.53, repro,
2006-12-15,1.19, -1.53, -6.16, 1.97, 1.79, 7.89, repro,
2006-12-16,0.09, -0.23, -3.59, 1.98, 1.84, 7.92, repro,
2006-12-17,-0.89, -0.94, -10.60, 1.97, 1.85, 8.13, repro,
2006-12-18,-0.14, -1.43, -4.89, 2.20, 2.00, 8.99, repro,
2006-12-19,1.44, -0.67, -8.50, 1.98, 1.84, 8.03, repro,
2006-12-20,0.88, -0.77, -6.05, 2.03, 1.87, 8.17, repro,
2006-12-21,0.58, -1.22, -7.32, 1.88, 1.81, 7.56, repro,
2006-12-22,1.19, 0.06, -1.45, 1.98, 1.85, 8.00, repro,
2006-12-23,1.75, -0.65, -5.76, 1.94, 1.76, 7.90, repro,
2006-12-24,0.92, -0.41, -11.31, 1.90, 1.71, 7.66, repro,
2006-12-25,0.61, -0.44, -12.52, 1.91, 1.79, 7.66, repro,
2006-12-26,1.58, -1.91, -2.81, 1.93, 1.77, 7.83, repro,
2006-12-27,2.60, -0.81, -12.63, 1.92, 1.80, 7.77, repro,
2006-12-28,0.19, -2.00, 5.28, 2.09, 1.98, 8.58, repro,
2006-12-29,1.48, -2.35, -9.35, 1.95, 1.80, 7.90, repro,
2006-12-30,0.81, 0.02, -7.32, 1.95, 1.80, 7.91, repro,
2006-12-31,1.16, -0.59, -6.98, 2.07, 1.92, 8.59, repro,
2007-01-01,1.74, -1.68, -11.28, 2.09, 1.94, 8.51, repro,
2007-01-02,-0.15, -1.96, -1.99, 2.17, 2.14, 8.97, repro,
2007-01-03,2.29, -0.68, -1.42, 1.91, 1.81, 7.64, repro,
2007-01-04,1.36, 0.57, -0.48, 1.87, 1.76, 7.57, repro,
2007-01-05,-0.82, -2.28, -9.85, 1.95, 1.83, 7.76, repro,
2007-01-06,1.21, -0.86, -6.93, 1.86, 1.76, 7.50, repro,
2007-01-07,2.18, 0.04, -12.06, 1.87, 1.70, 7.43, repro,
2007-01-08,1.81, -1.14, -10.95, 1.94, 1.80, 7.70, repro,
2007-01-09,0.94, -1.00, -12.08, 1.89, 1.69, 7.37, repro,
2007-01-10,0.29, -0.06, -9.15, 1.94, 1.75, 7.56, repro,
2007-01-11,0.30, 0.17, -7.97, 1.94, 1.71, 7.62, repro,
2007-01-12,2.90, -6.65, -16.11, 1.86, 1.68, 7.52, repro,
2007-01-13,0.59, -0.56, -14.37, 1.81, 1.63, 7.16, repro,
2007-01-14,0.87, 0.33, -15.11, 1.81, 1.62, 7.13, repro,
2007-01-15,1.20, -0.34, -16.19, 1.81, 1.63, 7.17, repro,
2007-01-16,1.18, 0.31, -11.31, 1.84, 1.64, 7.27, repro,
2007-01-17,1.44, -0.26, -13.06, 1.86, 1.71, 7.39, repro,
2007-01-18,0.85, 0.17, -17.78, 1.85, 1.69, 7.35, repro,
2007-01-19,1.47, -0.83, -15.64, 1.88, 1.65, 7.44, repro,
2007-01-20,1.63, -0.31, -11.58, 1.87, 1.65, 7.42, repro,
2007-01-21,0.75, -0.00, -7.30, 1.81, 1.63, 7.10, repro,
2007-01-22,0.09, 0.42, -11.05, 1.82, 1.66, 7.21, repro,
2007-01-23,1.77, 0.17, -13.38, 1.86, 1.72, 7.38, repro,
2007-01-24,0.74, -0.40, -15.99, 1.82, 1.64, 7.19, repro,
2007-01-25,1.55, 0.32, -18.05, 1.84, 1.66, 7.20, repro,
2007-01-26,0.13, -0.37, -10.45, 1.81, 1.62, 7.06, repro,
2007-01-27,0.14, -0.24, -10.05, 1.82, 1.66, 7.18, repro,
2007-01-28,0.68, 0.27, -13.12, 2.00, 1.70, 7.51, repro,
2007-01-29,0.58, -0.17, -11.91, 1.81, 1.64, 7.16, repro,
2007-01-30,0.81, -0.19, -7.60, 1.81, 1.63, 7.19, repro,
2007-01-31,0.94, -0.96, -4.43, 1.80, 1.62, 7.08, repro,
2007-02-01,-0.13, 0.14, -2.42, 1.84, 1.71, 7.34, repro,
2007-02-02,-0.24, 0.00, -7.86, 1.86, 1.66, 7.39, repro,
2007-02-03,0.57, -0.35, -14.04, 1.86, 1.67, 7.43, repro,
2007-02-04,0.94, 0.05, -11.33, 1.81, 1.64, 7.19, repro,
2007-02-05,1.20, -0.01, -11.87, 1.80, 1.63, 7.12, repro,
2007-02-06,0.48, -0.27, -13.65, 1.87, 1.66, 7.30, repro,
2007-02-07,1.23, 0.70, -10.59, 1.82, 1.65, 7.14, repro,
2007-02-08,0.93, 0.27, -19.07, 1.92, 1.77, 7.52, repro,
2007-02-09,0.88, 1.70, -10.89, 1.85, 1.69, 7.28, repro,
2007-02-10,-0.59, 2.46, -9.17, 1.81, 1.63, 7.12, repro,
2007-02-11,2.32, 0.87, -7.78, 1.82, 1.65, 7.19, repro,
2007-02-12,-0.55, 0.42, -7.79, 1.83, 1.65, 7.21, repro,
2007-02-13,-0.18, -1.51, -1.44, 1.82, 1.65, 7.18, repro,
2007-02-14,0.48, 0.45, -13.05, 1.82, 1.65, 7.19, repro,
2007-02-15,1.55, 1.10, -9.81, 1.81, 1.62, 7.07, repro,
2007-02-16,1.31, 0.55, -10.11, 1.83, 1.62, 7.16, repro,
2007-02-17,1.15, 0.85, -7.62, 1.86, 1.70, 7.27, repro,
2007-02-18,0.24, 0.48, -0.90, 1.82, 1.65, 7.24, repro,
2007-02-19,1.26, 1.22, 2.76, 1.82, 1.64, 7.20, repro,
2007-02-20,2.17, -1.11, -3.08, 1.82, 1.62, 7.13, repro,
2007-02-21,1.41, 0.67, -3.26, 1.82, 1.62, 7.13, repro,
2007-02-22,0.80, 0.43, -8.71, 1.83, 1.63, 7.16, repro,
2007-02-23,2.52, 4.96, 1.90, 1.91, 1.73, 7.56, repro,
2007-02-24,0.74, -0.04, -4.31, 1.83, 1.63, 7.16, repro,
2007-02-25,0.06, -0.22, -5.03, 1.82, 1.63, 7.17, repro,
2007-02-26,-0.26, 1.14, -2.57, 1.82, 1.61, 7.10, repro,
2007-02-27,-0.43, 1.26, -3.17, 1.94, 1.75, 7.47, repro,
2007-02-28,-2.60, 3.83, 16.71, 1.85, 1.66, 7.34, repro,
2007-03-01,1.26, -0.12, -1.59, 1.86, 1.69, 7.36, repro,
2007-03-02,1.37, 0.15, -4.07, 1.87, 1.68, 7.36, repro,
2007-03-03,1.46, -0.12, -11.27, 1.85, 1.65, 7.27, repro,
2007-03-04,1.92, 0.46, -11.39, 1.84, 1.65, 7.25, repro,
2007-03-05,1.99, -0.30, -10.61, 1.84, 1.65, 7.28, repro,
2007-03-06,1.48, -0.60, -7.40, 1.84, 1.65, 7.25, repro,